Flag for India Weather past 2 weeks in Tarn Taran Sahib, Punjab, India

Now
93 °F

Duststorm.


Feels Like: 93 °F
Forecast: 78 / 103 °F
Wind: 7 mph from Southeast

Location: Amritsar Airport

Current Time: Apr 26, 2015 at 6:46:04 PM

Latest Report: Apr 26, 2015 at 5:30 PM


Visibility: 3 mi

Pressure: 29.71 "Hg

Humidity: 34%

Dew point: 61 °F

Location of Tarn Taran SahibLocation

Historic Weather in Tarn Taran Sahib — Graph

°F

Tarn Taran Sahib temperature yesterday

Maximum temperature yesterday: 102 °F (at 2:30 PM)
Minimum temperature yesterday: 70 °F (at 4:00 AM)
Average temperature yesterday: 87 °F

Past Weeks' High & Low Weather Summary

 TemperatureHumidityPressure
High102 °F (Apr 24, 2:00 PM)100% (Apr 16, 8:30 AM)30.12 "Hg (Apr 16, 8:30 AM)
Low63 °F (Apr 17, 4:00 AM)14% (Apr 23, 4:30 PM)29.59 "Hg (Apr 19, 6:30 PM)
Average81 °F56%29.79 "Hg
* Reported Apr 11 5:30 PM — Apr 26 5:30 PM, Tarn Taran Sahib, Weather by CustomWeather, © 2015

Note: Actual official high and low records may vary slightly from our data, if they occured in-between our weather recording intervals... More about our weather records

Advertising

Tarn Taran Sahib weather history for previous 24 hours

 ConditionsComfort  
Time TempWeatherWind HumidityBarometerVisibility
5:30 PM
Sun, Apr 26
93 °FDuststorm.7 mph34%29.71 "Hg3 mi
3:30 PM95 °FDuststorm.9 mph30%29.77 "Hg3 mi
10:30 AM86 °FDuststorm.15 mph43%29.89 "Hg3 mi
10:00 AM84 °FDuststorm.17 mph45%29.89 "Hg2 mi
9:30 AM84 °FDuststorm.17 mph45%29.89 "Hg2 mi
8:30 AM82 °FDuststorm.14 mph48%29.89 "Hg2 mi
8:00 AM79 °FHaze.10 mph58%29.86 "Hg2 mi
7:30 AM77 °FHaze.10 mph61%29.86 "Hg2 mi
7:00 AM75 °FHaze.6 mph65%29.86 "Hg2 mi
6:30 AM72 °FHaze.3 mph73%29.83 "Hg2 mi
6:00 AM72 °FHaze.5 mph73%29.83 "Hg2 mi
5:30 AM73 °FHaze.6 mph69%29.80 "Hg2 mi
5:00 AM77 °FHaze.6 mph61%29.80 "Hg2 mi
4:30 AM77 °FHaze.7 mph61%29.77 "Hg2 mi
4:00 AM79 °FHaze.10 mph54%29.77 "Hg2 mi
3:30 AM79 °FHaze.8 mph58%29.77 "Hg2 mi
2:30 AM81 °FHaze.9 mph54%29.77 "Hg2 mi
2:00 AM81 °FPassing clouds.12 mph54%29.77 "Hg2 mi
1:30 AM82 °FPassing clouds.12 mph51%29.74 "Hg2 mi
1:00 AM82 °FPassing clouds.10 mph48%29.74 "Hg2 mi
12:30 AM84 °FPassing clouds.9 mph45%29.74 "Hg2 mi
12:00 AM82 °FPassing clouds.8 mph45%29.74 "Hg2 mi
11:30 PM
Sat, Apr 25
81 °FPassing clouds.3 mph48%29.74 "Hg2 mi
11:00 PM81 °FPassing clouds.6 mph45%29.71 "Hg2 mi
10:30 PM81 °FPassing clouds.5 mph45%29.71 "Hg2 mi
10:00 PM82 °FPassing clouds.5 mph40%29.71 "Hg2 mi
9:30 PM86 °FPassing clouds.3 mph33%29.71 "Hg2 mi
9:00 PM86 °FPassing clouds.No wind33%29.71 "Hg2 mi
8:00 PM91 °FPassing clouds.No wind26%29.68 "Hg2 mi
7:30 PM93 °FPassing clouds.2 mph24%29.68 "Hg2 mi
7:00 PM97 °FPassing clouds.1 mph19%29.65 "Hg3 mi
6:30 PM95 °FPassing clouds.5 mph22%29.65 "Hg3 mi
6:00 PM99 °FPassing clouds.6 mph16%29.65 "Hg3 mi
Weather by CustomWeather, © 2015

See weather overviewHow to use our weather pages